Regional Weather Roundup
Issued by NWS

Home | Current Version | Previous Version | Text Only | Print | Product List | Glossary On
Versions: 1 2 3 4 5 6 7 8 9 10 11 12 13 14 15 16 17 18 19 20 21 22 23 24 25 26 27 28 29 30 31 32 33 34 35 36 37 38 39 40 41 42 43 44 45 46 47 48 49 50
000
ASUS43 KMPX 212110
RWRMN
WEATHER ROUNDUP FOR MINNESOTA
NATIONAL WEATHER SERVICE TWIN CITIES/CHANHASSEN MN
400 PM CDT MON MAY 21 2018


NOTE: "FAIR" INDICATES FEW OR NO CLOUDS BELOW 12,000 FEET WITH NO
SIGNIFICANT WEATHER AND/OR OBSTRUCTIONS TO VISIBILITY. N/A MEANS
CURRENT SKY AND/OR WEATHER CONDITIONS ARE NOT AVAILABLE.

MNZ060>063-068>070-212200-
   Twin Cities Metro

CITY           SKY/WX    TMP DP  RH WIND       PRES   REMARKS
TWIN CITIES    CLOUDY    69  53  56 E12       30.00F
ST PAUL        CLOUDY    67  52  58 SE8       30.01F
CRYSTAL        PTSUNNY   71  49  45 E8        29.99F
BLAINE         PTSUNNY   70  50  49 E8        30.01F
LAKEVILLE      PTSUNNY   66  52  59 SE13      30.00F
EDEN PRAIRIE   FAIR      71  52  50 NE8       29.99F
SOUTH ST PAUL  CLOUDY    65  50  57 SE9       30.01F
LAKE ELMO      CLOUDY    64  52  63 SE9       30.03S
$$
MNZ001>005-007-008-013>017-022>024-027-028-212200-
   Northwest Minnesota

CITY           SKY/WX    TMP DP  RH WIND       PRES   REMARKS
BEMIDJI        FAIR      71  38  30 SE7       30.01S
HALLOCK        FAIR      79  19  11 S13G20    29.95F
ROSEAU         FAIR      75  30  19 S3G9      29.98F
WARROAD        FAIR      72  43  35 NE9       29.99F
THIEF RVR FALL FAIR      75  32  20 S9        29.99F
CROOKSTON      FAIR      77  37  24 S10G17    29.97S
FOSSTON        CLOUDY    75  37  25 S7        29.99F
DETROIT LAKES  FAIR      66  37  34 SE14G21   30.03F
MOORHEAD       FAIR      72  45  37 SE9       29.99S
PARK RAPIDS    CLOUDY    64  34  32 SE13      30.04F
MAHNOMEN       CLOUDY    69  35  28 SE10      30.01S
$$
MNZ006-009>011-018-025>026-212200-
   North Central Minnesota

CITY           SKY/WX    TMP DP  RH WIND       PRES   REMARKS
BAUDETTE       FAIR      75  32  20 S5        29.99F
FLAG ISLAND    FAIR      70  36  28 SE6       29.98F
INTL FALLS     FAIR      75  37  25 N8        29.99F
WASKISH        FAIR      72  45  37 NW8       30.00F
BIG FORK       FAIR      75  37  25 SW6       30.00F
LONGVILLE      CLOUDY    61  41  48 S8        30.05F
GRAND RAPIDS   CLOUDY    71  35  26 S12       30.04F
CRANE LAKE     FAIR      75  18  11 SE5       30.01F
ORR            FAIR      73  21  14 S3        29.98F
COOK           FAIR      75  34  22 SE6       30.00F
WALKER         LGT RAIN  58  42  55 S8        30.05S
$$
MNZ012-019>021-037-212200-
   Northeast Minnesota

CITY           SKY/WX    TMP DP  RH WIND       PRES   REMARKS
DULUTH         PTSUNNY   66  35  31 E12       30.05F
ELY            FAIR      75  25  15 S9        30.00F
HIBBING        FAIR      74  33  22 S12G17    30.01F
EVELETH        FAIR      74  26  17 SE8       30.03F
DULUTH HARBOR  PTSUNNY   52  41  66 CALM      30.06F
TWO HARBORS    FAIR      75  43  31 E9        30.02F
SILVER BAY     FAIR      70  28  21 E6        30.03F
GRAND MARAIS     N/A     54  34  46 NE3       30.05F
G MARAIS ARPRT FAIR      66  21  18 SE5       30.08F
$$
MNZ029>031-032-039>041-046>048-054>057-064-212200-
   West Central Minnesota

CITY           SKY/WX    TMP DP  RH WIND       PRES   REMARKS
FERGUS FALLS   FAIR      66  54  63 SE13      29.96F
WHEATON        CLOUDY    64  54  68 SE13      30.02S
MORRIS         CLOUDY    63  55  77 SE13      30.00F
ALEXANDRIA     CLOUDY    58  53  84 E10       30.04F
ELBOW LAKE     CLOUDY    61  54  76 SE13      30.02F
WADENA         PTSUNNY   61  43  51 SE13      30.04F
GLENWOOD       CLOUDY    55  54  94 E9        30.04F
APPLETON       CLOUDY    63  55  77 SE8       30.01S
BENSON         CLOUDY    61  55  82 SE7       30.03F
ORTONVILLE     CLOUDY    61  55  82 SE7       30.01S
MADISON        CLOUDY    64  57  77 SE6       30.00F
WILLMAR        CLOUDY    59  55  88 SE7       30.05S
$$
MNZ033>034-036-042>043-049>051-058-059-212200-
   Central Minnesota

CITY           SKY/WX    TMP DP  RH WIND       PRES   REMARKS
ST CLOUD       CLOUDY    54  50  86 N6        30.04F
SAUK CENTRE    CLOUDY    55  51  85 E9        30.04F
PAYNESVILLE    LGT RAIN  56  55  94 NE6       30.04S
AITKIN         FAIR      61  34  36 S10       30.04S
PINE RIVER     PTSUNNY   61  41  48 SE6       30.08F
BRAINERD       LGT RAIN  61  41  47 SE9       30.06S
STAPLES        CLOUDY    57  43  58 E7        30.05F
LONG PRAIRIE   CLOUDY    55  45  67 E9        30.05S
LITTLE FALLS   PTSUNNY   54  46  76 CALM      30.05F
LITCHFIELD     DRIZZLE   57  57 100 NE6       30.03S
BUFFALO        CLOUDY    64  50  59 NW6       30.02F
MAPLE LAKE     CLOUDY    63  51  66 N6        30.03F
HUTCHINSON     CLOUDY    65  58  77 E5        30.02F
$$
MNZ037-044-045-052-053-212200-
   East Central Minnesota

CITY           SKY/WX    TMP DP  RH WIND       PRES   REMARKS
PRINCETON      CLOUDY    63  45  51 NW3       30.03F
MORA           CLOUDY    61  30  31 CALM      30.06F
CAMBRIDGE      PTSUNNY   70  48  46 CALM      30.03F
RUSH CITY      CLOUDY    67  36  31 CALM      30.03F
MOOSE LAKE     CLOUDY    68  34  28 S8        30.03F
HINCKLEY       CLOUDY    68  27  21 CALM      30.03F
CLOQUET        CLOUDY    64  30  27 SE6       30.05S
MCGREGOR       CLOUDY    64  34  32 SE3       30.05F
$$
MNZ071>073-080-081-089-090-097-098-212200-
   Southwest Minnesota

CITY           SKY/WX    TMP DP  RH WIND       PRES   REMARKS
MONTEVIDEO     CLOUDY    63  59  88 CALM      30.01F
GRANITE FALLS  CLOUDY    63  58  83 CALM      30.02F HAZE
CANBY          CLOUDY    63  57  82 SE3       30.01F
MARSHALL       LGT RAIN  62  58  86 S7        30.01S
REDWOOD FALLS  CLOUDY    60  58  92 E7        30.00F
OLIVIA         CLOUDY    59  55  88 SE5       30.01S
PIPESTONE      CLOUDY    61  57  88 SW7       30.01S
WINDOM         CLOUDY    61  45  55 CALM      30.01S
WORTHINGTON    CLOUDY    60  57  89 S6        30.02S
JACKSON        CLOUDY    59  55  88 CALM      30.02S FOG
TRACY          CLOUDY    62  59  91 CALM      30.01S
SLAYTON        DRIZZLE   61  58  90 S3        30.02S
$$
MNZ065>067-074>077-082>085-091>093-212200-
   South Central Minnesota

CITY           SKY/WX    TMP DP  RH WIND       PRES   REMARKS
MANKATO        CLOUDY    66  55  67 SE3       30.01S
NEW ULM        CLOUDY    63  55  77 CALM      30.01S
ST JAMES       CLOUDY    64  57  77 CALM      30.02S
FAIRMONT       CLOUDY    62  58  86 VRB3      30.01F
GLENCOE        CLOUDY    67  54  62 CALM      30.00F
FARIBAULT      PTSUNNY   64  54  68 CALM      30.02R
OWATONNA       FAIR      61  55  82 E9        30.01F
WASECA         CLOUDY    63  54  72 SE6       30.03R
ALBERT LEA     CLOUDY    57  54  88 SE6       30.02S
$$
MNZ078>079-086>088-094>096-212200-
   Southeast Minnesota

CITY           SKY/WX    TMP DP  RH WIND       PRES   REMARKS
ROCHESTER      CLOUDY    56  54  93 E5        30.04S
RED WING       CLOUDY    61  46  59 SE6       30.02F
STANTON        CLOUDY    61  52  72 E12       30.01F
DODGE CENTER   CLOUDY    55  54  94 E7        30.02F
WINONA         CLOUDY    55  52  88 SE6       30.02S FOG
AUSTIN         CLOUDY    57  54  88 CALM      30.02S
PRESTON        CLOUDY    54  52  94 NE6       30.03F FOG
$$
ABBREVIATIONS USED IN REMARKS
   TC - TEMPERATURES IN CELSIUS
  WCI - WIND CHILL INDEX
   HX - HEAT INDEX
  VSB - VISIBILITY
$$




USA.gov is the U.S. government's official web portal to all federal, state and local government web resources and services.